| time (UTC) | temp F | wind direction | speed MPH | gust MPH | rain 1hr in | rain 24hr in | rain mn in | humidity % | barometer mb |
| 20260901024149 | 93 | 237 | 4.0 | 13.0 | 0.00 | 0.00 | 0.00 | 18 | 1007.8 |
| 20260901023530 | 93 | 244 | 4.0 | 13.0 | 0.00 | 0.00 | 0.00 | 18 | 1007.7 |
| 20260901023210 | 93 | 198 | 6.0 | 13.0 | 0.00 | 0.00 | 0.00 | 18 | 1007.8 |
| 20260901022551 | 93 | 231 | 6.0 | 13.0 | 0.00 | 0.00 | 0.00 | 18 | 1007.6 |
| 20260901022230 | 93 | 234 | 5.0 | 16.0 | 0.00 | 0.00 | 0.00 | 17 | 1007.6 |
| 20260901021908 | 93 | 238 | 5.0 | 16.0 | 0.00 | 0.00 | 0.00 | 17 | 1007.6 |
| 20260901021544 | 94 | 221 | 6.0 | 16.0 | 0.00 | 0.00 | 0.00 | 18 | 1007.6 |
| 20260901021225 | 94 | 249 | 7.0 | 16.0 | 0.00 | 0.00 | 0.00 | 17 | 1007.5 |
| 20260901020859 | 94 | 260 | 7.0 | 16.0 | 0.00 | 0.00 | 0.00 | 18 | 1007.5 |
| 20260901020534 | 94 | 242 | 7.0 | 16.0 | 0.00 | 0.00 | 0.00 | 17 | 1007.4 |
| 20260901020209 | 94 | 239 | 6.0 | 12.0 | 0.00 | 0.00 | 0.00 | 18 | 1007.4 |
| 20260901015855 | 94 | 254 | 5.0 | 17.0 | 0.00 | 0.00 | 0.00 | 18 | 1007.4 |
| 20260901015530 | 94 | 241 | 4.0 | 17.0 | 0.00 | 0.00 | 0.00 | 18 | 1007.3 |
| 20260901015204 | 94 | 228 | 4.0 | 17.0 | 0.00 | 0.00 | 0.00 | 18 | 1007.1 |
| 20260901014838 | 95 | 248 | 5.0 | 17.0 | 0.00 | 0.00 | 0.00 | 18 | 1007.2 |
| 20260901014518 | 95 | 188 | 6.0 | 17.0 | 0.00 | 0.00 | 0.00 | 17 | 1007.2 |
| 20260901014153 | 95 | 260 | 7.0 | 17.0 | 0.00 | 0.00 | 0.00 | 17 | 1007.2 |
| 20260901013833 | 95 | 257 | 7.0 | 16.0 | 0.00 | 0.00 | 0.00 | 17 | 1007.2 |
| 20260901013509 | 95 | 234 | 6.0 | 16.0 | 0.00 | 0.00 | 0.00 | 17 | 1007.2 |
| 20260901013143 | 95 | 207 | 7.0 | 16.0 | 0.00 | 0.00 | 0.00 | 17 | 1007.1 |
| 20260901012513 | 96 | 199 | 7.0 | 16.0 | 0.00 | 0.00 | 0.00 | 17 | 1007.2 |
| 20260901011847 | 96 | 219 | 7.0 | 15.0 | 0.00 | 0.00 | 0.00 | 17 | 1007.2 |
| 20260901011222 | 96 | 171 | 7.0 | 19.0 | 0.00 | 0.00 | 0.00 | 16 | 1007.2 |
| 20260901010908 | 96 | 196 | 8.0 | 19.0 | 0.00 | 0.00 | 0.00 | 16 | 1007.3 |
| 20260901010543 | 96 | 244 | 8.0 | 19.0 | 0.00 | 0.00 | 0.00 | 17 | 1007.2 |
| 20260901010225 | 97 | 170 | 9.0 | 19.0 | 0.00 | 0.00 | 0.00 | 16 | 1007.2 |
| 20260901005906 | 97 | 212 | 8.0 | 19.0 | 0.00 | 0.00 | 0.00 | 16 | 1007.2 |
| 20260901005542 | 97 | 165 | 8.0 | 18.0 | 0.00 | 0.00 | 0.00 | 16 | 1007.3 |
| 20260901005222 | 97 | 250 | 7.0 | 18.0 | 0.00 | 0.00 | 0.00 | 16 | 1007.2 |
| 20260901004859 | 97 | 248 | 8.0 | 18.0 | 0.00 | 0.00 | 0.00 | 16 | 1007.2 |
| 20260901004540 | 97 | 182 | 8.0 | 18.0 | 0.00 | 0.00 | 0.00 | 16 | 1007.2 |
| 20260901003916 | 98 | 203 | 9.0 | 18.0 | 0.00 | 0.00 | 0.00 | 15 | 1007.2 |
| 20260901003601 | 98 | 218 | 9.0 | 16.0 | 0.00 | 0.00 | 0.00 | 16 | 1007.2 |
| 20260901003240 | 98 | 218 | 8.0 | 16.0 | 0.00 | 0.00 | 0.00 | 16 | 1007.2 |
| 20260901002920 | 98 | 256 | 7.0 | 16.0 | 0.00 | 0.00 | 0.00 | 16 | 1007.3 |
| 20260901002602 | 98 | 244 | 7.0 | 20.0 | 0.00 | 0.00 | 0.00 | 15 | 1007.2 |
| 20260901002242 | 98 | 211 | 8.0 | 20.0 | 0.00 | 0.00 | 0.00 | 15 | 1007.1 |
| 20260901001917 | 98 | 234 | 9.0 | 20.0 | 0.00 | 0.00 | 0.00 | 15 | 1007.1 |
| 20260901001255 | 98 | 167 | 9.0 | 20.0 | 0.00 | 0.00 | 0.00 | 15 | 1007.2 |
| 20260901000937 | 99 | 229 | 9.0 | 20.0 | 0.00 | 0.00 | 0.00 | 15 | 1007.1 |
| 20260901000616 | 98 | 191 | 10.0 | 17.0 | 0.00 | 0.00 | 0.00 | 15 | 1007.2 |
| 20260901000251 | 99 | 227 | 10.0 | 19.0 | 0.00 | 0.00 | 0.00 | 16 | 1007.2 |
| 20260831235926 | 99 | 259 | 9.0 | 19.0 | 0.00 | 0.00 | 0.00 | 16 | 1007.3 |
| 20260831235609 | 99 | 203 | 9.0 | 19.0 | 0.00 | 0.00 | 0.00 | 15 | 1007.3 |
| 20260831234955 | 99 | 241 | 9.0 | 19.0 | 0.00 | 0.00 | 0.00 | 15 | 1007.2 |
| 20260831234629 | 99 | 244 | 9.0 | 19.0 | 0.00 | 0.00 | 0.00 | 15 | 1007.2 |
| 20260831234315 | 100 | 232 | 8.0 | 18.0 | 0.00 | 0.00 | 0.00 | 15 | 1007.2 |
| 20260831233947 | 100 | 202 | 9.0 | 18.0 | 0.00 | 0.00 | 0.00 | 15 | 1007.2 |
| 20260831233624 | 100 | 238 | 9.0 | 18.0 | 0.00 | 0.00 | 0.00 | 15 | 1007.2 |
| 20260831233009 | 101 | 176 | 9.0 | 18.0 | 0.00 | 0.00 | 0.00 | 15 | 1007.3 |
| 20260831232644 | 101 | 192 | 9.0 | 18.0 | 0.00 | 0.00 | 0.00 | 15 | 1007.3 |
| 20260831232324 | 101 | 225 | 8.0 | 19.0 | 0.00 | 0.00 | 0.00 | 15 | 1007.3 |
| 20260831232006 | 101 | 172 | 8.0 | 19.0 | 0.00 | 0.00 | 0.00 | 16 | 1007.3 |
| 20260831231642 | 101 | 186 | 8.0 | 19.0 | 0.00 | 0.00 | 0.00 | 15 | 1007.3 |
| 20260831231018 | 101 | 197 | 10.0 | 22.0 | 0.00 | 0.00 | 0.00 | 15 | 1007.3 |
| 20260831230657 | 101 | 212 | 10.0 | 22.0 | 0.00 | 0.00 | 0.00 | 15 | 1007.4 |
| 20260831230335 | 101 | 219 | 9.0 | 22.0 | 0.00 | 0.00 | 0.00 | 15 | 1007.4 |
| 20260831230012 | 101 | 225 | 7.0 | 22.0 | 0.00 | 0.00 | 0.00 | 15 | 1007.3 |
| 20260831225646 | 101 | 234 | 6.0 | 22.0 | 0.00 | 0.00 | 0.00 | 16 | 1007.3 |
| 20260831225328 | 101 | 271 | 5.0 | 14.0 | 0.00 | 0.00 | 0.00 | 16 | 1007.4 |
| 20260831224707 | 100 | 259 | 6.0 | 20.0 | 0.00 | 0.00 | 0.00 | 16 | 1007.6 |
| 20260831224343 | 100 | 152 | 7.0 | 20.0 | 0.00 | 0.00 | 0.00 | 17 | 1007.6 |
| 20260831224017 | 101 | 250 | 9.0 | 20.0 | 0.00 | 0.00 | 0.00 | 16 | 1007.8 |
| 20260831223655 | 101 | 304 | 9.0 | 20.0 | 0.00 | 0.00 | 0.00 | 16 | 1007.8 |
| 20260831223340 | 101 | 206 | 9.0 | 20.0 | 0.00 | 0.00 | 0.00 | 16 | 1007.8 |
| 20260831223019 | 102 | 230 | 9.0 | 17.0 | 0.00 | 0.00 | 0.00 | 16 | 1007.8 |
| 20260831222400 | 102 | 200 | 8.0 | 15.0 | 0.00 | 0.00 | 0.00 | 16 | 1007.9 |
| 20260831222041 | 101 | 210 | 8.0 | 15.0 | 0.00 | 0.00 | 0.00 | 17 | 1008.0 |
| 20260831221719 | 100 | 249 | 7.0 | 22.0 | 0.00 | 0.00 | 0.00 | 17 | 1008.1 |
| 20260831221402 | 102 | 196 | 7.0 | 22.0 | 0.00 | 0.00 | 0.00 | 16 | 1008.1 |
| 20260831221046 | 102 | 186 | 7.0 | 22.0 | 0.00 | 0.00 | 0.00 | 16 | 1008.1 |
| 20260831220726 | 102 | 276 | 8.0 | 22.0 | 0.00 | 0.00 | 0.00 | 16 | 1008.1 |
| 20260831220109 | 102 | 243 | 7.0 | 22.0 | 0.00 | 0.00 | 0.00 | 16 | 1008.2 |
| 20260831215452 | 102 | 215 | 7.0 | 18.0 | 0.00 | 0.00 | 0.00 | 17 | 1008.3 |
| 20260831215128 | 101 | 211 | 7.0 | 20.0 | 0.00 | 0.00 | 0.00 | 17 | 1008.3 |
| 20260831214812 | 101 | 190 | 8.0 | 20.0 | 0.00 | 0.00 | 0.00 | 17 | 1008.4 |
| 20260831213848 | 101 | 202 | 9.0 | 20.0 | 0.00 | 0.00 | 0.00 | 17 | 1008.5 |
| 20260831213523 | 101 | 108 | 9.0 | 20.0 | 0.00 | 0.00 | 0.00 | 16 | 1008.6 |
| 20260831212905 | 101 | 175 | 8.0 | 18.0 | 0.00 | 0.00 | 0.00 | 16 | 1008.7 |
| 20260831212542 | 101 | 222 | 6.0 | 18.0 | 0.00 | 0.00 | 0.00 | 16 | 1008.8 |
| 20260831212224 | 101 | 144 | 6.0 | 18.0 | 0.00 | 0.00 | 0.00 | 16 | 1008.9 |
| 20260831211558 | 99 | 246 | 9.0 | 17.0 | 0.00 | 0.00 | 0.00 | 17 | 1009.0 |
| 20260831211243 | 100 | 184 | 9.0 | 17.0 | 0.00 | 0.00 | 0.00 | 17 | 1009.0 |
| 20260831210928 | 101 | 221 | 8.0 | 17.0 | 0.00 | 0.00 | 0.00 | 17 | 1009.1 |
| 20260831210604 | 100 | 181 | 6.0 | 17.0 | 0.00 | 0.00 | 0.00 | 17 | 1009.1 |
| 20260831210241 | 100 | 177 | 6.0 | 17.0 | 0.00 | 0.00 | 0.00 | 17 | 1009.2 |
| 20260831205927 | 100 | 225 | 6.0 | 17.0 | 0.00 | 0.00 | 0.00 | 17 | 1009.3 |
| 20260831205002 | 100 | 173 | 7.0 | 18.0 | 0.00 | 0.00 | 0.00 | 17 | 1009.4 |
| 20260831204639 | 101 | 221 | 6.0 | 18.0 | 0.00 | 0.00 | 0.00 | 17 | 1009.6 |
| 20260831204321 | 101 | 171 | 7.0 | 18.0 | 0.00 | 0.00 | 0.00 | 17 | 1009.5 |
| 20260831203956 | 100 | 221 | 9.0 | 20.0 | 0.00 | 0.00 | 0.00 | 17 | 1009.5 |
| 20260831203635 | 100 | 175 | 9.0 | 20.0 | 0.00 | 0.00 | 0.00 | 17 | 1009.6 |
| 20260831203313 | 100 | 243 | 9.0 | 20.0 | 0.00 | 0.00 | 0.00 | 17 | 1009.6 |
| 20260831202959 | 100 | 207 | 9.0 | 20.0 | 0.00 | 0.00 | 0.00 | 18 | 1009.6 |
| 20260831202643 | 100 | 171 | 9.0 | 20.0 | 0.00 | 0.00 | 0.00 | 18 | 1009.7 |
| 20260831202323 | 99 | 167 | 9.0 | 20.0 | 0.00 | 0.00 | 0.00 | 18 | 1009.7 |
| 20260831201700 | 100 | 194 | 9.0 | 18.0 | 0.00 | 0.00 | 0.00 | 19 | 1009.7 |
| 20260831201335 | 99 | 222 | 8.0 | 16.0 | 0.00 | 0.00 | 0.00 | 19 | 1009.8 |
| 20260831201020 | 99 | 239 | 8.0 | 20.0 | 0.00 | 0.00 | 0.00 | 20 | 1009.8 |
| 20260831200653 | 99 | 197 | 8.0 | 20.0 | 0.00 | 0.00 | 0.00 | 20 | 1009.9 |
| 20260831200329 | 99 | 213 | 9.0 | 20.0 | 0.00 | 0.00 | 0.00 | 19 | 1009.9 |
| 20260831195712 | 99 | 189 | 9.0 | 20.0 | 0.00 | 0.00 | 0.00 | 21 | 1010.1 |
| 20260831195352 | 99 | 146 | 8.0 | 20.0 | 0.00 | 0.00 | 0.00 | 20 | 1010.1 |
| 20260831195027 | 99 | 159 | 7.0 | 17.0 | 0.00 | 0.00 | 0.00 | 20 | 1010.2 |
| 20260831194703 | 99 | 202 | 6.0 | 17.0 | 0.00 | 0.00 | 0.00 | 21 | 1010.1 |
| 20260831194043 | 98 | 106 | 7.0 | 15.0 | 0.00 | 0.00 | 0.00 | 21 | 1010.2 |
| 20260831192821 | 96 | 169 | 8.0 | 16.0 | 0.00 | 0.00 | 0.00 | 22 | 1010.5 |
| 20260831192459 | 97 | 123 | 8.0 | 16.0 | 0.00 | 0.00 | 0.00 | 21 | 1010.7 |
| 20260831191538 | 97 | 190 | 10.0 | 20.0 | 0.00 | 0.00 | 0.00 | 21 | 1010.9 |
| 20260831191222 | 98 | 132 | 11.0 | 20.0 | 0.00 | 0.00 | 0.00 | 21 | 1010.9 |
| 20260831190907 | 97 | 148 | 10.0 | 21.0 | 0.00 | 0.00 | 0.00 | 21 | 1010.9 |
| 20260831190548 | 97 | 206 | 10.0 | 21.0 | 0.00 | 0.00 | 0.00 | 22 | 1011.0 |
| 20260831190230 | 97 | 138 | 9.0 | 21.0 | 0.00 | 0.00 | 0.00 | 22 | 1010.9 |
| 20260831185607 | 97 | 159 | 9.0 | 24.0 | 0.00 | 0.00 | 0.00 | 22 | 1011.1 |
| 20260831185249 | 96 | 201 | 9.0 | 24.0 | 0.00 | 0.00 | 0.00 | 23 | 1011.2 |
| 20260831184928 | 96 | 175 | 10.0 | 24.0 | 0.00 | 0.00 | 0.00 | 23 | 1011.3 |
| 20260831184602 | 96 | 146 | 9.0 | 24.0 | 0.00 | 0.00 | 0.00 | 22 | 1011.2 |
| 20260831184248 | 96 | 178 | 10.0 | 24.0 | 0.00 | 0.00 | 0.00 | 23 | 1011.2 |
| 20260831183622 | 96 | 149 | 9.0 | 21.0 | 0.00 | 0.00 | 0.00 | 22 | 1011.3 |
| 20260831183300 | 96 | 167 | 9.0 | 21.0 | 0.00 | 0.00 | 0.00 | 22 | 1011.3 |
| 20260831182644 | 96 | 114 | 10.0 | 19.0 | 0.00 | 0.00 | 0.00 | 22 | 1011.3 |
| 20260831182322 | 96 | 115 | 10.0 | 19.0 | 0.00 | 0.00 | 0.00 | 22 | 1011.4 |
| 20260831181959 | 96 | 135 | 11.0 | 19.0 | 0.00 | 0.00 | 0.00 | 22 | 1011.3 |
| 20260831181643 | 96 | 159 | 9.0 | 19.0 | 0.00 | 0.00 | 0.00 | 23 | 1011.4 |
| 20260831181320 | 95 | 151 | 8.0 | 20.0 | 0.00 | 0.00 | 0.00 | 22 | 1011.4 |
| 20260831181000 | 94 | 140 | 7.0 | 20.0 | 0.00 | 0.00 | 0.00 | 23 | 1011.3 |
| 20260831180646 | 94 | 149 | 9.0 | 20.0 | 0.00 | 0.00 | 0.00 | 22 | 1011.5 |
| 20260831180322 | 94 | 123 | 9.0 | 20.0 | 0.00 | 0.00 | 0.00 | 22 | 1011.5 |
| 20260831175957 | 94 | 125 | 10.0 | 20.0 | 0.00 | 0.00 | 0.00 | 23 | 1011.6 |
| 20260831175336 | 94 | 149 | 9.0 | 19.0 | 0.00 | 0.00 | 0.00 | 22 | 1011.5 |
| 20260831175010 | 95 | 155 | 10.0 | 19.0 | 0.00 | 0.00 | 0.00 | 21 | 1011.5 |
| 20260831174654 | 95 | 153 | 10.0 | 19.0 | 0.00 | 0.00 | 0.00 | 22 | 1011.6 |
| 20260831174337 | 95 | 142 | 10.0 | 19.0 | 0.00 | 0.00 | 0.00 | 22 | 1011.5 |
| 20260831173713 | 94 | 134 | 11.0 | 23.0 | 0.00 | 0.00 | 0.00 | 22 | 1011.5 |
| 20260831173056 | 94 | 109 | 11.0 | 23.0 | 0.00 | 0.00 | 0.00 | 22 | 1011.6 |
| 20260831172731 | 94 | 159 | 10.0 | 23.0 | 0.00 | 0.00 | 0.00 | 22 | 1011.6 |
| 20260831172407 | 94 | 130 | 9.0 | 23.0 | 0.00 | 0.00 | 0.00 | 22 | 1011.6 |
| 20260831172043 | 94 | 194 | 9.0 | 19.0 | 0.00 | 0.00 | 0.00 | 22 | 1011.5 |
| 20260831171729 | 94 | 195 | 9.0 | 16.0 | 0.00 | 0.00 | 0.00 | 22 | 1011.5 |
| 20260831171112 | 94 | 138 | 9.0 | 16.0 | 0.00 | 0.00 | 0.00 | 23 | 1011.6 |
| 20260831170757 | 93 | 136 | 8.0 | 15.0 | 0.00 | 0.00 | 0.00 | 23 | 1011.5 |
| 20260831170437 | 93 | 155 | 7.0 | 16.0 | 0.00 | 0.00 | 0.00 | 24 | 1011.5 |
| 20260831165817 | 92 | 163 | 9.0 | 16.0 | 0.00 | 0.00 | 0.00 | 24 | 1011.4 |
| 20260831165151 | 92 | 139 | 9.0 | 16.0 | 0.00 | 0.00 | 0.00 | 24 | 1011.3 |
| 20260831164835 | 92 | 151 | 8.0 | 16.0 | 0.00 | 0.00 | 0.00 | 23 | 1011.4 |
| 20260831164512 | 92 | 156 | 8.0 | 16.0 | 0.00 | 0.00 | 0.00 | 24 | 1011.4 |
| 20260831164149 | 92 | 157 | 8.0 | 16.0 | 0.00 | 0.00 | 0.00 | 24 | 1011.4 |
| 20260831163829 | 91 | 150 | 8.0 | 16.0 | 0.00 | 0.00 | 0.00 | 24 | 1011.5 |
| 20260831163505 | 92 | 164 | 7.0 | 16.0 | 0.00 | 0.00 | 0.00 | 24 | 1011.5 |
| 20260831163142 | 91 | 190 | 7.0 | 15.0 | 0.00 | 0.00 | 0.00 | 24 | 1011.4 |
| 20260831162817 | 91 | 162 | 7.0 | 15.0 | 0.00 | 0.00 | 0.00 | 24 | 1011.3 |
| 20260831162451 | 90 | 159 | 8.0 | 15.0 | 0.00 | 0.00 | 0.00 | 24 | 1011.2 |
| 20260831162127 | 90 | 206 | 8.0 | 15.0 | 0.00 | 0.00 | 0.00 | 25 | 1011.3 |
| 20260831161805 | 90 | 166 | 8.0 | 15.0 | 0.00 | 0.00 | 0.00 | 25 | 1011.3 |
| 20260831161449 | 90 | 159 | 8.0 | 16.0 | 0.00 | 0.00 | 0.00 | 25 | 1011.3 |
| 20260831161135 | 89 | 115 | 9.0 | 16.0 | 0.00 | 0.00 | 0.00 | 25 | 1011.3 |
| 20260831160815 | 89 | 153 | 8.0 | 16.0 | 0.00 | 0.00 | 0.00 | 25 | 1011.3 |
| 20260831160458 | 89 | 172 | 8.0 | 17.0 | 0.00 | 0.00 | 0.00 | 26 | 1011.4 |
| 20260831160141 | 89 | 159 | 7.0 | 17.0 | 0.00 | 0.00 | 0.00 | 26 | 1011.4 |
| 20260831155825 | 88 | 141 | 7.0 | 17.0 | 0.00 | 0.00 | 0.00 | 26 | 1011.5 |
| 20260831155503 | 88 | 165 | 7.0 | 17.0 | 0.00 | 0.00 | 0.00 | 26 | 1011.4 |
| 20260831154846 | 88 | 134 | 6.0 | 17.0 | 0.00 | 0.00 | 0.00 | 26 | 1011.6 |
| 20260831154525 | 88 | 171 | 4.0 | 10.0 | 0.00 | 0.00 | 0.00 | 26 | 1011.5 |
| 20260831153901 | 87 | 136 | 1.0 | 6.0 | 0.00 | 0.00 | 0.00 | 28 | 1011.4 |
| 20260831153244 | 85 | 82 | 0.0 | 2.0 | 0.00 | 0.00 | 0.00 | 29 | 1011.4 |
| 20260831152929 | 86 | 299 | 0.0 | 0.0 | 0.00 | 0.00 | 0.00 | 29 | 1011.4 |
| 20260831152310 | 86 | 240 | 0.0 | 1.0 | 0.00 | 0.00 | 0.00 | 29 | 1011.4 |
| 20260831151642 | 84 | 333 | 0.0 | 0.0 | 0.00 | 0.00 | 0.00 | 30 | 1011.3 |
| 20260831151322 | 85 | 333 | 0.0 | 0.0 | 0.00 | 0.00 | 0.00 | 29 | 1011.2 |
| 20260831151001 | 84 | 333 | 0.0 | 2.0 | 0.00 | 0.00 | 0.00 | 30 | 1011.2 |
| 20260831150636 | 84 | 333 | 0.0 | 2.0 | 0.00 | 0.00 | 0.00 | 31 | 1011.2 |
| 20260831150320 | 84 | 287 | 0.0 | 2.0 | 0.00 | 0.00 | 0.00 | 31 | 1011.1 |
| 20260831150002 | 83 | 250 | 0.0 | 1.0 | 0.00 | 0.00 | 0.00 | 32 | 1011.2 |
| 20260831145347 | 83 | 244 | 1.0 | 6.0 | 0.00 | 0.00 | 0.00 | 31 | 1010.9 |
| 20260831145029 | 82 | 280 | 0.0 | 6.0 | 0.00 | 0.00 | 0.00 | 33 | 1011.0 |
| 20260831144714 | 82 | 128 | 0.0 | 2.0 | 0.00 | 0.00 | 0.00 | 33 | 1010.9 |
| 20260831144352 | 81 | 243 | 0.0 | 0.0 | 0.00 | 0.00 | 0.00 | 33 | 1010.9 |
| 20260831144030 | 81 | 284 | 0.0 | 2.0 | 0.00 | 0.00 | 0.00 | 36 | 1010.8 |
| 20260831143715 | 81 | 284 | 1.0 | 2.0 | 0.00 | 0.00 | 0.00 | 36 | 1010.8 |
| 20260831143358 | 80 | 285 | 1.0 | 2.0 | 0.00 | 0.00 | 0.00 | 37 | 1010.8 |
| 20260831143039 | 79 | 288 | 0.0 | 2.0 | 0.00 | 0.00 | 0.00 | 38 | 1010.8 |
| 20260831142716 | 78 | 250 | 0.0 | 2.0 | 0.00 | 0.00 | 0.00 | 39 | 1010.9 |
| 20260831142057 | 77 | 250 | 0.0 | 2.0 | 0.00 | 0.00 | 0.00 | 40 | 1010.7 |
| 20260831141733 | 77 | 250 | 0.0 | 2.0 | 0.00 | 0.00 | 0.00 | 40 | 1010.6 |
| 20260831141414 | 77 | 250 | 0.0 | 2.0 | 0.00 | 0.00 | 0.00 | 39 | 1010.4 |
| 20260831141048 | 77 | 248 | 0.0 | 1.0 | 0.00 | 0.00 | 0.00 | 39 | 1010.3 |
| 20260831140733 | 76 | 247 | 0.0 | 1.0 | 0.00 | 0.00 | 0.00 | 40 | 1010.3 |
| 20260831135808 | 75 | 271 | 0.0 | 2.0 | 0.00 | 0.00 | 0.00 | 40 | 1010.3 |
| 20260831135450 | 75 | 266 | 0.0 | 2.0 | 0.00 | 0.00 | 0.00 | 40 | 1010.1 |
| 20260831135131 | 75 | 296 | 0.0 | 0.0 | 0.00 | 0.00 | 0.00 | 39 | 1010.1 |
| 20260831134805 | 75 | 296 | 0.0 | 0.0 | 0.00 | 0.00 | 0.00 | 40 | 1010.1 |
| 20260831134443 | 75 | 297 | 0.0 | 0.0 | 0.00 | 0.00 | 0.00 | 40 | 1010.1 |
| 20260831134126 | 75 | 297 | 0.0 | 1.0 | 0.00 | 0.00 | 0.00 | 39 | 1010.1 |
| 20260831133812 | 75 | 297 | 0.0 | 0.0 | 0.00 | 0.00 | 0.00 | 39 | 1010.0 |
| 20260831133446 | 75 | 296 | 0.0 | 0.0 | 0.00 | 0.00 | 0.00 | 39 | 1009.9 |
| 20260831133130 | 75 | 297 | 0.0 | 0.0 | 0.00 | 0.00 | 0.00 | 39 | 1010.0 |
| 20260831132815 | 75 | 297 | 0.0 | 3.0 | 0.00 | 0.00 | 0.00 | 40 | 1009.9 |
| 20260831132455 | 75 | 297 | 1.0 | 3.0 | 0.00 | 0.00 | 0.00 | 39 | 1009.8 |
| 20260831131834 | 76 | 261 | 1.0 | 3.0 | 0.00 | 0.00 | 0.00 | 38 | 1009.8 |
| 20260831131519 | 75 | 279 | 0.0 | 2.0 | 0.00 | 0.00 | 0.00 | 39 | 1009.7 |
| 20260831130601 | 77 | 247 | 1.0 | 0.0 | 0.00 | 0.00 | 0.00 | 36 | 1009.7 |
| 20260831130246 | 78 | 247 | 2.0 | 6.0 | 0.00 | 0.00 | 0.00 | 35 | 1009.6 |
| 20260831125927 | 78 | 223 | 2.0 | 6.0 | 0.00 | 0.00 | 0.00 | 35 | 1009.7 |
| 20260831125605 | 77 | 207 | 2.0 | 6.0 | 0.00 | 0.00 | 0.00 | 36 | 1009.6 |
| 20260831125245 | 77 | 262 | 1.0 | 5.0 | 0.00 | 0.00 | 0.00 | 36 | 1009.5 |
| 20260831124928 | 77 | 251 | 1.0 | 3.0 | 0.00 | 0.00 | 0.00 | 36 | 1009.6 |
| 20260831124607 | 77 | 205 | 0.0 | 3.0 | 0.00 | 0.00 | 0.00 | 36 | 1009.5 |
| 20260831124252 | 77 | 258 | 0.0 | 3.0 | 0.00 | 0.00 | 0.00 | 36 | 1009.4 |
| 20260831123935 | 77 | 238 | 0.0 | 3.0 | 0.00 | 0.00 | 0.00 | 37 | 1009.5 |
| 20260831123617 | 76 | 183 | 0.0 | 3.0 | 0.00 | 0.00 | 0.00 | 37 | 1009.5 |
| 20260831123256 | 75 | 13 | 0.0 | 2.0 | 0.00 | 0.00 | 0.00 | 37 | 1009.4 |
| 20260831122935 | 75 | 13 | 1.0 | 3.0 | 0.00 | 0.00 | 0.00 | 38 | 1009.5 |
| 20260831122613 | 75 | 37 | 1.0 | 3.0 | 0.00 | 0.00 | 0.00 | 38 | 1009.5 |
| 20260831121947 | 75 | 23 | 1.0 | 2.0 | 0.00 | 0.00 | 0.00 | 39 | 1009.6 |
| 20260831121330 | 75 | 13 | 1.0 | 2.0 | 0.00 | 0.00 | 0.00 | 39 | 1009.4 |
| 20260831120704 | 75 | 300 | 0.0 | 1.0 | 0.00 | 0.00 | 0.00 | 38 | 1009.5 |
| 20260831120346 | 75 | 257 | 0.0 | 0.0 | 0.00 | 0.00 | 0.00 | 38 | 1009.4 |
| 20260831120029 | 75 | 257 | 0.0 | 0.0 | 0.00 | 0.00 | 0.00 | 38 | 1009.4 |
| 20260831115714 | 75 | 261 | 1.0 | 5.0 | 0.00 | 0.00 | 0.00 | 38 | 1009.4 |
| 20260831115351 | 76 | 266 | 2.0 | 5.0 | 0.00 | 0.00 | 0.00 | 37 | 1009.3 |
| 20260831115034 | 76 | 276 | 2.0 | 5.0 | 0.00 | 0.00 | 0.00 | 37 | 1009.3 |
| 20260831114713 | 76 | 254 | 2.0 | 5.0 | 0.00 | 0.00 | 0.00 | 37 | 1009.2 |
| 20260831114354 | 76 | 260 | 1.0 | 5.0 | 0.00 | 0.00 | 0.00 | 37 | 1009.2 |
| 20260831114029 | 76 | 265 | 1.0 | 3.0 | 0.00 | 0.00 | 0.00 | 36 | 1009.2 |
| 20260831113713 | 76 | 261 | 1.0 | 3.0 | 0.00 | 0.00 | 0.00 | 36 | 1009.2 |
| 20260831113348 | 76 | 261 | 0.0 | 3.0 | 0.00 | 0.00 | 0.00 | 36 | 1009.2 |
| 20260831112723 | 76 | 247 | 0.0 | 0.0 | 0.00 | 0.00 | 0.00 | 37 | 1009.3 |
| 20260831112402 | 76 | 247 | 0.0 | 0.0 | 0.00 | 0.00 | 0.00 | 36 | 1009.3 |
| 20260831111746 | 76 | 247 | 0.0 | 0.0 | 0.00 | 0.00 | 0.00 | 36 | 1009.2 |
| 20260831111431 | 76 | 247 | 0.0 | 1.0 | 0.00 | 0.00 | 0.00 | 36 | 1009.1 |
| 20260831111108 | 76 | 247 | 0.0 | 0.0 | 0.00 | 0.00 | 0.00 | 36 | 1009.1 |
| 20260831110744 | 76 | 247 | 0.0 | 1.0 | 0.00 | 0.00 | 0.00 | 36 | 1009.1 |
| 20260831110418 | 76 | 247 | 0.0 | 1.0 | 0.00 | 0.00 | 0.00 | 35 | 1009.1 |
| 20260831110101 | 76 | 247 | 0.0 | 1.0 | 0.00 | 0.00 | 0.00 | 35 | 1009.1 |
| 20260831105735 | 76 | 211 | 0.0 | 0.0 | 0.00 | 0.00 | 0.00 | 36 | 1009.1 |
| 20260831105416 | 77 | 211 | 0.0 | 1.0 | 0.00 | 0.00 | 0.00 | 35 | 1009.1 |
| 20260831105055 | 77 | 211 | 0.0 | 1.0 | 0.00 | 0.00 | 0.00 | 34 | 1009.0 |
| 20260831104740 | 77 | 198 | 0.0 | 0.0 | 0.00 | 0.00 | 0.00 | 34 | 1009.1 |
| 20260831104419 | 78 | 198 | 1.0 | 4.0 | 0.00 | 0.00 | 0.00 | 34 | 1009.0 |
| 20260831104054 | 77 | 206 | 2.0 | 4.0 | 0.00 | 0.00 | 0.00 | 33 | 1009.0 |
| 20260831103732 | 77 | 194 | 2.0 | 4.0 | 0.00 | 0.00 | 0.00 | 35 | 1009.0 |
| 20260831103412 | 77 | 213 | 1.0 | 3.0 | 0.00 | 0.00 | 0.00 | 35 | 1008.9 |
| 20260831103049 | 77 | 227 | 1.0 | 3.0 | 0.00 | 0.00 | 0.00 | 34 | 1008.9 |
| 20260831102426 | 77 | 309 | 1.0 | 3.0 | 0.00 | 0.00 | 0.00 | 35 | 1008.8 |
| 20260831102103 | 77 | 14 | 0.0 | 3.0 | 0.00 | 0.00 | 0.00 | 35 | 1008.8 |
| 20260831101746 | 77 | 14 | 0.0 | 3.0 | 0.00 | 0.00 | 0.00 | 35 | 1008.8 |
| 20260831101425 | 77 | 165 | 0.0 | 1.0 | 0.00 | 0.00 | 0.00 | 35 | 1008.6 |
| 20260831101106 | 77 | 165 | 0.0 | 1.0 | 0.00 | 0.00 | 0.00 | 35 | 1008.7 |
| 20260831100749 | 77 | 165 | 0.0 | 0.0 | 0.00 | 0.00 | 0.00 | 34 | 1008.6 |
| 20260831100425 | 78 | 165 | 0.0 | 1.0 | 0.00 | 0.00 | 0.00 | 35 | 1008.6 |
| 20260831095444 | 78 | 235 | 1.0 | 2.0 | 0.00 | 0.00 | 0.00 | 33 | 1008.5 |
| 20260831095118 | 78 | 258 | 0.0 | 2.0 | 0.00 | 0.00 | 0.00 | 33 | 1008.5 |
| 20260831094753 | 78 | 263 | 0.0 | 2.0 | 0.00 | 0.00 | 0.00 | 33 | 1008.5 |
| 20260831094433 | 78 | 21 | 0.0 | 1.0 | 0.00 | 0.00 | 0.00 | 33 | 1008.5 |
| 20260831094118 | 78 | 21 | 1.0 | 0.0 | 0.00 | 0.00 | 0.00 | 33 | 1008.6 |
| 20260831093801 | 78 | 21 | 1.0 | 3.0 | 0.00 | 0.00 | 0.00 | 32 | 1008.5 |
| 20260831093444 | 78 | 21 | 1.0 | 3.0 | 0.00 | 0.00 | 0.00 | 34 | 1008.5 |
| 20260831093120 | 78 | 14 | 1.0 | 3.0 | 0.00 | 0.00 | 0.00 | 33 | 1008.5 |
| 20260831092758 | 78 | 17 | 1.0 | 3.0 | 0.00 | 0.00 | 0.00 | 35 | 1008.6 |
| 20260831092435 | 77 | 355 | 1.0 | 2.0 | 0.00 | 0.00 | 0.00 | 34 | 1008.6 |
| 20260831092118 | 77 | 330 | 1.0 | 2.0 | 0.00 | 0.00 | 0.00 | 34 | 1008.6 |
| 20260831091757 | 77 | 312 | 1.0 | 3.0 | 0.00 | 0.00 | 0.00 | 34 | 1008.6 |
| 20260831091442 | 78 | 212 | 0.0 | 3.0 | 0.00 | 0.00 | 0.00 | 34 | 1008.6 |
| 20260831091117 | 78 | 209 | 1.0 | 3.0 | 0.00 | 0.00 | 0.00 | 33 | 1008.5 |
| 20260831090752 | 78 | 219 | 1.0 | 3.0 | 0.00 | 0.00 | 0.00 | 32 | 1008.5 |
| 20260831090435 | 79 | 219 | 1.0 | 3.0 | 0.00 | 0.00 | 0.00 | 32 | 1008.5 |
| 20260831090115 | 79 | 238 | 1.0 | 3.0 | 0.00 | 0.00 | 0.00 | 32 | 1008.5 |
| 20260831085759 | 79 | 266 | 1.0 | 2.0 | 0.00 | 0.00 | 0.00 | 32 | 1008.5 |
| 20260831085432 | 79 | 263 | 1.0 | 2.0 | 0.00 | 0.00 | 0.00 | 32 | 1008.5 |
| 20260831085111 | 79 | 263 | 0.0 | 2.0 | 0.00 | 0.00 | 0.00 | 32 | 1008.5 |
| 20260831084744 | 79 | 263 | 0.0 | 2.0 | 0.00 | 0.00 | 0.00 | 32 | 1008.5 |
| 20260831084420 | 79 | 263 | 0.0 | 2.0 | 0.00 | 0.00 | 0.00 | 32 | 1008.5 |
| 20260831084055 | 79 | 260 | 0.0 | 2.0 | 0.00 | 0.00 | 0.00 | 32 | 1008.5 |
| 20260831083139 | 79 | 213 | 1.0 | 2.0 | 0.00 | 0.00 | 0.00 | 31 | 1008.5 |
| 20260831082817 | 79 | 199 | 0.0 | 2.0 | 0.00 | 0.00 | 0.00 | 31 | 1008.5 |
| 20260831082452 | 80 | 118 | 0.0 | 2.0 | 0.00 | 0.00 | 0.00 | 30 | 1008.5 |
| 20260831082130 | 80 | 91 | 0.0 | 1.0 | 0.00 | 0.00 | 0.00 | 30 | 1008.5 |
| 20260831081807 | 80 | 90 | 0.0 | 0.0 | 0.00 | 0.00 | 0.00 | 31 | 1008.5 |
| 20260831081442 | 80 | 90 | 0.0 | 0.0 | 0.00 | 0.00 | 0.00 | 30 | 1008.5 |
| 20260831081121 | 80 | 90 | 0.0 | 3.0 | 0.00 | 0.00 | 0.00 | 30 | 1008.5 |
| 20260831080758 | 81 | 15 | 0.0 | 1.0 | 0.00 | 0.00 | 0.00 | 30 | 1008.5 |
| 20260831080441 | 81 | 15 | 0.0 | 1.0 | 0.00 | 0.00 | 0.00 | 29 | 1008.5 |
| 20260831080125 | 81 | 15 | 0.0 | 5.0 | 0.00 | 0.00 | 0.00 | 29 | 1008.5 |
| 20260831075810 | 81 | 15 | 1.0 | 5.0 | 0.00 | 0.00 | 0.00 | 29 | 1008.4 |
| 20260831075448 | 81 | 22 | 1.0 | 5.0 | 0.00 | 0.00 | 0.00 | 29 | 1008.5 |
| 20260831075124 | 81 | 34 | 1.0 | 5.0 | 0.00 | 0.00 | 0.00 | 29 | 1008.4 |
| 20260831074801 | 81 | 42 | 1.0 | 5.0 | 0.00 | 0.00 | 0.00 | 30 | 1008.5 |
| 20260831074440 | 80 | 62 | 0.0 | 2.0 | 0.00 | 0.00 | 0.00 | 30 | 1008.4 |
| 20260831074115 | 80 | 317 | 0.0 | 1.0 | 0.00 | 0.00 | 0.00 | 29 | 1008.4 |
| 20260831073755 | 80 | 286 | 0.0 | 0.0 | 0.00 | 0.00 | 0.00 | 30 | 1008.4 |
| 20260831073434 | 80 | 244 | 0.0 | 0.0 | 0.00 | 0.00 | 0.00 | 29 | 1008.3 |
| 20260831073116 | 80 | 244 | 0.0 | 0.0 | 0.00 | 0.00 | 0.00 | 29 | 1008.5 |
| 20260831072801 | 81 | 244 | 0.0 | 0.0 | 0.00 | 0.00 | 0.00 | 30 | 1008.5 |
| 20260831071834 | 82 | 245 | 2.0 | 5.0 | 0.00 | 0.00 | 0.00 | 28 | 1008.4 |
| 20260831071515 | 82 | 265 | 2.0 | 5.0 | 0.00 | 0.00 | 0.00 | 28 | 1008.4 |
| 20260831071158 | 82 | 289 | 2.0 | 5.0 | 0.00 | 0.00 | 0.00 | 28 | 1008.4 |
| 20260831070839 | 82 | 274 | 2.0 | 5.0 | 0.00 | 0.00 | 0.00 | 28 | 1008.3 |
| 20260831070521 | 82 | 280 | 1.0 | 5.0 | 0.00 | 0.00 | 0.00 | 28 | 1008.3 |
| 20260831065853 | 82 | 282 | 1.0 | 3.0 | 0.00 | 0.00 | 0.00 | 28 | 1008.2 |
| 20260831065531 | 82 | 279 | 1.0 | 3.0 | 0.00 | 0.00 | 0.00 | 27 | 1008.3 |
| 20260831065211 | 82 | 275 | 2.0 | 3.0 | 0.00 | 0.00 | 0.00 | 28 | 1008.2 |
| 20260831064856 | 82 | 284 | 1.0 | 3.0 | 0.00 | 0.00 | 0.00 | 28 | 1008.3 |
| 20260831064232 | 82 | 245 | 1.0 | 3.0 | 0.00 | 0.00 | 0.00 | 29 | 1008.3 |
| 20260831063908 | 82 | 245 | 0.0 | 2.0 | 0.00 | 0.00 | 0.00 | 29 | 1008.2 |
| 20260831063546 | 82 | 245 | 0.0 | 1.0 | 0.00 | 0.00 | 0.00 | 29 | 1008.2 |
| 20260831063221 | 82 | 245 | 0.0 | 1.0 | 0.00 | 0.00 | 0.00 | 28 | 1008.2 |
| 20260831062858 | 83 | 245 | 0.0 | 5.0 | 0.00 | 0.00 | 0.00 | 27 | 1008.3 |
| 20260831062540 | 83 | 245 | 1.0 | 5.0 | 0.00 | 0.00 | 0.00 | 27 | 1008.3 |
| 20260831061923 | 84 | 246 | 2.0 | 5.0 | 0.00 | 0.00 | 0.00 | 26 | 1008.3 |
| 20260831061600 | 83 | 213 | 2.0 | 5.0 | 0.00 | 0.00 | 0.00 | 26 | 1008.2 |
| 20260831061233 | 83 | 182 | 1.0 | 5.0 | 0.00 | 0.00 | 0.00 | 27 | 1008.3 |
| 20260831060911 | 83 | 165 | 1.0 | 3.0 | 0.00 | 0.00 | 0.00 | 28 | 1008.3 |
| 20260831060550 | 83 | 196 | 1.0 | 2.0 | 0.00 | 0.00 | 0.00 | 26 | 1008.3 |
| 20260831060232 | 84 | 252 | 1.0 | 2.0 | 0.00 | 0.00 | 0.00 | 26 | 1008.1 |
| 20260831055909 | 84 | 254 | 1.0 | 5.0 | 0.00 | 0.00 | 0.00 | 26 | 1008.0 |
| 20260831055553 | 84 | 255 | 1.0 | 5.0 | 0.00 | 0.00 | 0.00 | 26 | 1008.0 |
| 20260831055230 | 84 | 254 | 1.0 | 5.0 | 0.00 | 0.00 | 0.00 | 26 | 1008.0 |
| 20260831054611 | 84 | 202 | 1.0 | 5.0 | 0.00 | 0.00 | 0.00 | 26 | 1008.2 |
| 20260831054249 | 84 | 165 | 1.0 | 5.0 | 0.00 | 0.00 | 0.00 | 26 | 1008.3 |
| 20260831053925 | 84 | 150 | 0.0 | 2.0 | 0.00 | 0.00 | 0.00 | 26 | 1008.3 |
| 20260831053605 | 84 | 150 | 0.0 | 2.0 | 0.00 | 0.00 | 0.00 | 25 | 1008.2 |
| 20260831052948 | 83 | 279 | 1.0 | 2.0 | 0.00 | 0.00 | 0.00 | 26 | 1008.2 |
| 20260831052628 | 84 | 290 | 1.0 | 3.0 | 0.00 | 0.00 | 0.00 | 26 | 1008.1 |
| 20260831052308 | 84 | 277 | 2.0 | 3.0 | 0.00 | 0.00 | 0.00 | 25 | 1008.1 |
| 20260831051949 | 84 | 278 | 2.0 | 3.0 | 0.00 | 0.00 | 0.00 | 25 | 1008.1 |
| 20260831051628 | 84 | 283 | 2.0 | 3.0 | 0.00 | 0.00 | 0.00 | 26 | 1008.0 |
| 20260831051304 | 84 | 284 | 0.0 | 3.0 | 0.00 | 0.00 | 0.00 | 26 | 1008.1 |
| 20260831050948 | 84 | 276 | 0.0 | 3.0 | 0.00 | 0.00 | 0.00 | 27 | 1008.0 |
| 20260831050629 | 84 | 198 | 0.0 | 0.0 | 0.00 | 0.00 | 0.00 | 26 | 1008.1 |
| 20260831050312 | 84 | 198 | 0.0 | 0.0 | 0.00 | 0.00 | 0.00 | 26 | 1008.1 |
| 20260831045704 | 84 | 198 | 0.0 | 1.0 | 0.00 | 0.00 | 0.00 | 25 | 1008.1 |
| 20260831045334 | 84 | 198 | 0.0 | 1.0 | 0.00 | 0.00 | 0.00 | 26 | 1008.1 |
| 20260831045008 | 84 | 198 | 0.0 | 1.0 | 0.00 | 0.00 | 0.00 | 25 | 1008.1 |
| 20260831044644 | 84 | 197 | 0.0 | 1.0 | 0.00 | 0.00 | 0.00 | 25 | 1008.2 |
| 20260831044020 | 84 | 296 | 0.0 | 0.0 | 0.00 | 0.00 | 0.00 | 26 | 1008.1 |
| 20260831043704 | 84 | 296 | 0.0 | 0.0 | 0.00 | 0.00 | 0.00 | 25 | 1008.1 |
| 20260831043048 | 85 | 294 | 0.0 | 0.0 | 0.00 | 0.00 | 0.00 | 25 | 1008.1 |
| 20260831042426 | 85 | 294 | 0.0 | 1.0 | 0.00 | 0.00 | 0.00 | 24 | 1008.1 |
| 20260831042109 | 85 | 294 | 0.0 | 1.0 | 0.00 | 0.00 | 0.00 | 25 | 1008.0 |
| 20260831041747 | 85 | 294 | 0.0 | 0.0 | 0.00 | 0.00 | 0.00 | 24 | 1008.1 |
| 20260831041129 | 86 | 302 | 1.0 | 4.0 | 0.00 | 0.00 | 0.00 | 23 | 1008.0 |
| 20260831040804 | 86 | 302 | 1.0 | 4.0 | 0.00 | 0.00 | 0.00 | 24 | 1008.0 |
| 20260831040442 | 86 | 309 | 1.0 | 4.0 | 0.00 | 0.00 | 0.00 | 24 | 1007.9 |
| 20260831040120 | 86 | 264 | 1.0 | 2.0 | 0.00 | 0.00 | 0.00 | 23 | 1007.9 |
| 20260831035501 | 86 | 259 | 1.0 | 2.0 | 0.00 | 0.00 | 0.00 | 24 | 1007.9 |
| 20260831035146 | 86 | 259 | 1.0 | 2.0 | 0.00 | 0.00 | 0.00 | 22 | 1007.9 |
| 20260831034525 | 86 | 259 | 0.0 | 1.0 | 0.00 | 0.00 | 0.00 | 23 | 1007.9 |
| 20260831034200 | 86 | 247 | 0.0 | 1.0 | 0.00 | 0.00 | 0.00 | 23 | 1007.8 |
| 20260831033838 | 87 | 229 | 0.0 | 1.0 | 0.00 | 0.00 | 0.00 | 22 | 1007.7 |
| 20260831033516 | 87 | 222 | 0.0 | 0.0 | 0.00 | 0.00 | 0.00 | 23 | 1007.7 |
| 20260831033157 | 87 | 222 | 0.0 | 1.0 | 0.00 | 0.00 | 0.00 | 21 | 1007.6 |
| 20260831032836 | 87 | 222 | 0.0 | 1.0 | 0.00 | 0.00 | 0.00 | 21 | 1007.6 |
| 20260831032510 | 88 | 222 | 0.0 | 1.0 | 0.00 | 0.00 | 0.00 | 22 | 1007.5 |
| 20260831032146 | 88 | 221 | 0.0 | 2.0 | 0.00 | 0.00 | 0.00 | 21 | 1007.5 |
| 20260831031833 | 88 | 221 | 0.0 | 2.0 | 0.00 | 0.00 | 0.00 | 21 | 1007.4 |
| 20260831031511 | 89 | 221 | 1.0 | 2.0 | 0.00 | 0.00 | 0.00 | 20 | 1007.5 |
| 20260831031148 | 90 | 217 | 1.0 | 9.0 | 0.00 | 0.00 | 0.00 | 19 | 1007.4 |
| 20260831030831 | 90 | 254 | 2.0 | 9.0 | 0.00 | 0.00 | 0.00 | 19 | 1007.3 |
| 20260831025915 | 92 | 230 | 3.0 | 9.0 | 0.00 | 0.00 | 0.00 | 18 | 1007.1 |
| 20260831025557 | 92 | 207 | 3.0 | 9.0 | 0.00 | 0.00 | 0.00 | 18 | 1007.1 |
| 20260831025241 | 92 | 243 | 3.0 | 8.0 | 0.00 | 0.00 | 0.00 | 18 | 1007.0 |
| 20260831024916 | 92 | 242 | 3.0 | 10.0 | 0.00 | 0.00 | 0.00 | 18 | 1007.0 |
| 20260831024557 | 92 | 259 | 3.0 | 10.0 | 0.00 | 0.00 | 0.00 | 18 | 1006.9 |